Regional Weather Roundup
Issued by NWS

Home | Current Version | Previous Version | Text Only | Print | Product List | Glossary On
Versions: 1 2 3 4 5 6 7 8 9 10 11 12 13 14 15 16 17 18 19 20 21 22 23 24 25 26 27 28 29 30 31 32 33 34 35 36 37 38 39 40 41 42 43 44 45 46 47 48 49 50
000
ASUS46 KLOX 300513
RWRCA

SOUTHERN CALIFORNIA WEATHER ROUNDUP
NATIONAL WEATHER SERVICE OXNARD CALIFORNIA
1000 PM PDT FRI MAY 29 2015

NOTE: "FAIR" INDICATES FEW OR NO CLOUDS BELOW 12,000 FEET WITH NO
SIGNIFICANT WEATHER AND/OR OBSTRUCTIONS TO VISIBILITY.

  -  STATIONS PRECEEDED BY AN ASTERISK (*) ARE NOT NWS OR FAA
     STATIONS AND ARE NOT SUBJECT TO NWS AND FAA QUALITY CONTROL.

CAZ041-042-087-300600-
LA AND ORANGE COUNTY COASTAL AREAS


CITY           SKY/WX    TMP DP  RH WIND       PRES   REMARKS
L.A. DOWNTOWN  CLEAR     61  56  83 CALM      29.92R
L.A. AIRPORT   CLOUDY    58  57  97 W6        29.93R
LONG BEACH     PTCLDY    63  57  81 NW5       29.92R

CITY           SKY/WX    TMP DP  RH WIND       PRES   REMARKS
AVALON           N/A     59 N/A N/A SE2         N/A
FULLERTON      CLEAR     65  57  75 SE5       29.91R
*GETTY CENTER    N/A     59  54  82 NE2         N/A
HAWTHORNE      CLOUDY    62  57  83 VRB3      29.93R
*LOS ALAMITOS  PTCLDY    63  59  88 SE2       29.92R
*REDONDO BEACH   N/A     60  56  85 W1        29.93R
SANTA ANA      MOCLDY    62  57  83 SW5       29.92S
STA MONICA APT CLOUDY    59  56  89 S5        29.92R
*STA MON PIER    N/A     59  57  92 CALM      29.92R
*UCLA            N/A     59  54  82 CALM      29.90R

$$

CAZ547-548-048-300600-
LA COUNTY VALLEYS AND INLAND EMPIRE


CITY           SKY/WX    TMP DP  RH WIND       PRES   REMARKS
BURBANK        CLEAR     66  56  70 SE5       29.91R
VAN NUYS       CLEAR     68  55  63 SE5       29.91R

CITY           SKY/WX    TMP DP  RH WIND       PRES   REMARKS
CORONA AIRPORT PTCLDY    64  57  78 CALM      29.93R
*CHATSWORTH      N/A     70  56  61 CALM      29.90R
CHINO          CLEAR     65  57  75 NW7       29.93R
MARCH AFB      PTCLDY    69  51  53 NW5       29.94R
*NORTHRIDGE      N/A     68  54  60 E2          N/A
ONTARIO        MOCLDY    68  56  65 SW6       29.92R
*PASADENA        N/A     66  59  77 CALM        N/A
RIVERSIDE      PTCLDY    68  56  65 W5        29.93R
SAN BERNARDINO NOT AVBL
*WHITEMAN AP   NOT AVBL
*WOODLAND HILL   N/A     66  55  68 SE1         N/A

$$

CAZ054-055-300600-
LA AND SAN BERNARDINO COUNTY MOUNTAINS


CITY           SKY/WX    TMP DP  RH WIND       PRES   REMARKS
*BIG BEAR AIRP PTCLDY    52  32  46 CALM      30.25R
SANDBERG       PTCLDY    70  39  32 W7        30.11R

$$

CAZ028-029-059-060-099-300600-
ANTELOPE VALLEY AND SURROUNDING AREAS


CITY           SKY/WX    TMP DP  RH WIND       PRES   REMARKS
LANCASTER      PTCLDY    73  34  23 W10       29.95R
PALMDALE       PTCLDY    75  39  27 NW7       29.96R

CITY           SKY/WX    TMP DP  RH WIND       PRES   REMARKS
29 PALMS       MOCLDY    84  44  24 VRB7      29.97R
BARSTOW/DAGGET MOCLDY    86  33  15 W10       29.89R
BISHOP         CLEAR     80  17   9 SE13      29.98R
CHINA LAKE     PTCLDY    81  38  21 S8        29.89R
EDWARDS AFB    MOCLDY    80  37  21 W8        29.92R
MOJAVE         FAIR      79  34  19 W15       29.95F
NEEDLES        PTCLDY    90  20   7 W6        29.83R
VICTORVILLE    PTCLDY    75  30  19 S3        29.98R

$$

CAZ039-040-300600-
VENTURA AND SANTA BARBARA COUNTY COAST


CITY           SKY/WX    TMP DP  RH WIND       PRES   REMARKS
CAMARILLO      CLEAR     60  55  83 CALM      29.91R
OXNARD AIRPORT PTCLDY    58  54  86 W5        29.91S
*POINT MUGU    MOCLDY    61  56  83 W3        29.92R
SBA APT/GOLETA CLEAR     57  55  93 SE5       29.89S
*SANTA BARBARA   N/A     63  54  73 CALM      29.98R
*VENTURA         N/A     60  54  82 CALM      29.53R

$$

CAZ044-045-300600-
VENTURA COUNTY VALLEYS


CITY           SKY/WX    TMP DP  RH WIND       PRES   REMARKS
*SIMI VALLEY     N/A     63  55  76 CALM      29.86S
*OJAI            N/A     62  54  76 CALM      29.83S
*FILLMORE        N/A     61  53  74 CALM      29.82R

$$

CAZ053-300600-
VENTURA COUNTY MOUNTAINS


CITY           SKY/WX    TMP DP  RH WIND       PRES   REMARKS

$$

CAZ034-035-036-300600-
CENTRAL COAST AND SANTA YNEZ VALLEY


CITY           SKY/WX    TMP DP  RH WIND       PRES   REMARKS
SAN LUIS OBISP CLOUDY    54  52  93 NW8       29.95S
SANTA MARIA    CLOUDY    55  53  93 NW6       29.96S

CITY           SKY/WX    TMP DP  RH WIND       PRES   REMARKS
*CAL POLY SLO    N/A     54  52  94 W2G10       N/A
*LOMPOC        CLOUDY    55  48  76 W5        29.96S
*PISMO BEACH     N/A     55  53  92 CALM      29.96S
*SANTA YNEZ    FAIR      54  50  87 W5        29.95R

$$

CAZ037-038-051-300600-
SAN LUIS OBISPO COUNTY INTERIOR AND CUYAMA VALLEY


CITY           SKY/WX    TMP DP  RH WIND       PRES   REMARKS
PASO ROBLES    CLEAR     66  46  48 W10       29.93R

$$

CAZ032-033-061-300600-
SOUTHERN DESERTS


CITY           SKY/WX    TMP DP  RH WIND       PRES   REMARKS
BLYTHE         PTCLDY    87  30  13 W6        29.81R
IMPERIAL       PTCLDY    86  38  18 SE8       29.77R
PALM SPRINGS   PTCLDY    90  48  23 SW3       29.83R
THERMAL        MOCLDY    78  53  41 NE3       29.77R

$$

ELSEWHERE ACROSS THE WESTERN UNITED STATES AND MEXICO


CITY           SKY/WX    TMP DP  RH WIND       PRES   REMARKS
DENVER, CO     MOCLDY    49  44  83 E8        30.33F
GRAND CANYON,  PTCLDY    64  35  34 E6        30.25R
HONOLULU, HI   PTCLDY    79  63  57 NE7       29.95R
KAHULUI, MAUI  PTCLDY    77  66  69 NE13      29.98R
LAKE TAHOE, CA PTCLDY    57  44  62 CALM      30.18R
LAS VEGAS, NV  PTCLDY    90  19   7 S13       29.85R
MAMMOTH LAKES, FAIR      59  28  31 NE5       30.23R
MEXICO CITY, M CLOUDY    61  52  72 W9        30.34R
PHOENIX, AZ    CLEAR     91  29  11 W3        29.83R
PORTLAND, OR   MOCLDY    67  54  63 VRB5      29.93R
RENO, NV       MOCLDY    76  29  17 NW3       30.04R
SALT LAKE CITY MOCLDY    64  45  49 S3        30.12R
SAN DIEGO, CA  MOCLDY    63  55  77 NW5       29.95R
SAN FRANCISCO, PTCLDY    54  49  83 W14       29.97R
SAN JOSE, CA   PTCLDY    56  51  84 NW10      29.98R
SEATTLE, WA    MOCLDY    62  50  64 S6        29.93R
TIJUANA, MEX   PTCLDY    59  54  82 W6        29.95

$$

STATION/POSITION TIME  TEMP    WIND        PRES    VSBY  WAVE
                       AIR SEA DIR/SP/G                  HT/PER
                 (UTC) (F)     (DEG/KT/KT) (MB)    (MI)  (FT/S)
POINT ARGUELLO B NOT AVBL
WEST SANTA BARBA 0450   54 55  320/ 23/ 27 1012.2S         5/12
POINT CONCEPTION NOT AVBL
EAST SANTA BARBA 0400   57 60  240/ 12/ 14 1012.9F
SANTA MONICA BAY 0450   59 63  300/  4/  4 1013.3R         3/15



USA.gov is the U.S. government's official web portal to all federal, state and local government web resources and services.